Location: Astronomy Club of Akron Observatory
(40.9700°N, 81.5606°W)
Time: 02:49:44
(UTC-04:00)

ISS - Pass Details

Date: 22 July 2018
Orbit: 402 x 408 km, 51.6° (Epoch: 16 July)

Event Time Altitude Azimuth Distance (km) Brightness Sun altitude
Rises 02:17:44 0° 310° (NW) 2,328 0.4 -27.9°
Reaches altitude 10° 02:20:17 10° 331° (NNW) 1,468 -0.4 -27.8°
Maximum altitude 02:22:38 18° 17° (NNE) 1,079 -0.9 -27.7°
Drops below altitude 10° 02:25:00 10° 63° (ENE) 1,466 -0.5 -27.6°
Sets 02:27:32 0° 83° (E) 2,326 0.3 -27.5°
